TimeEDT,TemperatureF,Dew PointF,Humidity,Sea Level PressureIn,VisibilityMPH,Wind Direction,Wind SpeedMPH,Gust SpeedMPH,PrecipitationIn,Events,Conditions,WindDirDegrees,DateUTC
12:55 AM,71.1,64.9,81,30.25,10.0,Calm,Calm,-,N/A,,Clear,0,2013-07-16 04:55:00
1:55 AM,70.0,64.9,84,30.25,10.0,Calm,Calm,-,N/A,,Clear,0,2013-07-16 05:55:00
2:55 AM,70.0,64.9,84,30.25,9.0,ENE,3.5,-,N/A,,Clear,60,2013-07-16 06:55:00
3:55 AM,68.0,63.0,84,30.25,10.0,Calm,Calm,-,N/A,,Clear,0,2013-07-16 07:55:00
4:55 AM,68.0,63.0,84,30.26,10.0,Calm,Calm,-,N/A,,Clear,0,2013-07-16 08:55:00
5:55 AM,66.9,63.0,87,30.26,10.0,Calm,Calm,-,N/A,,Clear,0,2013-07-16 09:55:00
6:55 AM,68.0,63.0,84,30.27,9.0,Calm,Calm,-,N/A,,Overcast,0,2013-07-16 10:55:00
7:55 AM,68.0,63.0,84,30.27,9.0,Calm,Calm,-,N/A,,Overcast,0,2013-07-16 11:55:00
8:55 AM,72.0,64.9,78,30.27,9.0,SE,4.6,-,N/A,,Mostly Cloudy,140,2013-07-16 12:55:00
9:55 AM,77.0,68.0,74,30.25,10.0,SE,4.6,-,N/A,,Partly Cloudy,140,2013-07-16 13:55:00
10:55 AM,82.9,66.0,56,30.25,10.0,Variable,4.6,-,N/A,,Mostly Cloudy,0,2013-07-16 14:55:00
11:55 AM,84.9,64.0,49,30.23,10.0,SSE,6.9,-,N/A,,Clear,160,2013-07-16 15:55:00
12:55 PM,89.1,64.0,43,30.22,10.0,SW,6.9,-,N/A,,Clear,230,2013-07-16 16:55:00
1:55 PM,90.0,63.0,40,30.21,10.0,SSW,9.2,-,N/A,,Clear,210,2013-07-16 17:55:00
2:55 PM,91.0,64.0,41,30.19,10.0,South,8.1,-,N/A,,Clear,190,2013-07-16 18:55:00
3:55 PM,91.0,64.0,41,30.16,10.0,SSW,11.5,20.7,N/A,,Clear,200,2013-07-16 19:55:00
4:55 PM,88.0,64.9,46,30.18,10.0,SSW,16.1,-,N/A,,Clear,200,2013-07-16 20:55:00
5:55 PM,84.9,69.1,59,30.18,10.0,SW,9.2,-,N/A,,Clear,220,2013-07-16 21:55:00
6:55 PM,80.1,71.1,74,30.17,10.0,West,4.6,-,0.00,,Clear,260,2013-07-16 22:55:00
7:55 PM,82.9,71.1,67,30.16,10.0,WSW,6.9,-,N/A,,Clear,240,2013-07-16 23:55:00
8:55 PM,82.0,71.1,69,30.16,10.0,SW,6.9,-,N/A,,Clear,230,2013-07-17 00:55:00
9:55 PM,80.1,70.0,71,30.15,10.0,SW,6.9,-,N/A,,Partly Cloudy,220,2013-07-17 01:55:00
10:55 PM,78.1,70.0,76,30.15,10.0,SW,10.4,-,N/A,,Clear,220,2013-07-17 02:55:00
11:55 PM,77.0,69.1,76,30.16,10.0,SW,6.9,-,N/A,,Clear,230,2013-07-17 03:55:00